Weather History for Kivalina, AK

Change the Weather History Date:

Thursday, August 15, 2013

  Actual Average Record
Temperature  
Mean Temperature 51 °F -  
Max Temperature 57 °F - - ()
Min Temperature 45 °F - - ()
Degree Days  
Heating Degree Days 14    
Growing Degree Days 1 (Base 50)    
Moisture  
Dew Point 47 °F    
Average Humidity 85    
Maximum Humidity 100    
Minimum Humidity 67    
Precipitation  
Precipitation 0.00 in - - ()
Sea Level Pressure  
Sea Level Pressure 29.82 in    
Wind  
Wind Speed 11 mph (NNE)    
Max Wind Speed 15 mph    
Max Gust Speed -    
Visibility 10 miles    
Events      
T = Trace of Precipitation, MM = Missing Value Source: NWS Daily Summary

Daily Weather History Graph

Daily Weather History Graph

Search for Another Location

Airport:

Trip Planner

Search our weather history database for the weather conditions in past years. The results will help you decide how hot, cold, wet, or windy it might be!

Date:

Astronomy

Aug. 15, 2013 Rise Set
Actual Time 6:22 AM AKDT 11:39 PM AKDT
Civil Twilight 4:52 AM AKDT 1:07 AM AKDT
Nautical Twilight Sun does not rise Sun does not rise
Astronomical Twilight Sun does not rise Sun does not rise
Moon 8:30 PM AKDT (8/15) No Moon Set
Length of Visible Light 20h 15m
Length of Day
17h 16m
Waxing Gibbous, 66% of the Moon is Illuminated
Aug 15
Waxing Gibbous
Aug 20
Full
Aug 28
Last Quarter
Sep 5
New
Sep 12
First Quarter

Hourly Weather History & Observations

Time (AKDT) Temp. Windchill Dew Point Humidity Pressure Visibility Wind Dir Wind Speed Gust Speed Precip Events Conditions
12:53 AM 48.0 °F - 48.0 °F 100% 29.85 in 10.0 mi East 9.2 mph - N/A   Clear
1:53 AM 46.9 °F - 46.9 °F 100% 29.85 in 10.0 mi NE 9.2 mph - N/A   Clear
2:53 AM 46.9 °F - 46.9 °F 100% 29.85 in 10.0 mi NE 6.9 mph - N/A   Clear
3:53 AM 46.0 °F 41.0 °F 45.0 °F 96% 29.85 in 10.0 mi NE 10.4 mph - 0.00 in   Clear
4:53 AM 46.0 °F 39.6 °F 44.1 °F 93% 29.85 in 10.0 mi ENE 15.0 mph - N/A   Clear
5:53 AM 46.0 °F 39.9 °F 43.0 °F 89% 29.85 in 10.0 mi NE 13.8 mph - N/A   Clear
6:53 AM 45.0 °F 39.3 °F 44.1 °F 97% 29.85 in 10.0 mi NE 11.5 mph - N/A   Clear
7:53 AM 46.0 °F 39.9 °F 44.1 °F 93% 29.84 in 10.0 mi NE 13.8 mph - N/A   Clear
8:53 AM 46.9 °F - 42.1 °F 83% 29.85 in 10.0 mi ENE 13.8 mph - N/A   Clear
9:53 AM 48.9 °F - 43.0 °F 80% 29.84 in 10.0 mi ENE 13.8 mph - N/A   Clear
10:53 AM 50.0 °F - 44.1 °F 80% 29.84 in 10.0 mi ENE 12.7 mph - N/A   Clear
11:53 AM 52.0 °F - 44.1 °F 74% 29.83 in 10.0 mi ENE 15.0 mph - N/A   Clear
12:53 PM 53.1 °F - 45.0 °F 74% 29.84 in 10.0 mi ENE 11.5 mph - N/A   Clear
1:53 PM 55.9 °F - 45.0 °F 67% 29.83 in 10.0 mi East 4.6 mph - N/A   Clear
2:53 PM 57.0 °F - 48.9 °F 74% 29.82 in 10.0 mi West 8.1 mph - N/A   Clear
3:53 PM 55.9 °F - 50.0 °F 80% 29.82 in 10.0 mi WNW 10.4 mph - N/A   Clear
4:53 PM 55.9 °F - 48.9 °F 77% 29.81 in 10.0 mi West 11.5 mph - N/A   Clear
5:53 PM 55.9 °F - 48.0 °F 75% 29.80 in 10.0 mi West 13.8 mph - N/A   Clear
6:53 PM 55.9 °F - 50.0 °F 80% 29.79 in 10.0 mi West 12.7 mph - N/A   Clear
7:53 PM 55.9 °F - 52.0 °F 87% 29.78 in 10.0 mi West 10.4 mph - N/A   Clear
8:53 PM 55.0 °F - 53.1 °F 93% 29.77 in 10.0 mi WSW 6.9 mph - N/A   Clear
9:53 PM 54.0 °F - 48.9 °F 83% 29.77 in 10.0 mi North 9.2 mph - N/A   Clear
10:53 PM 52.0 °F - 46.9 °F 83% 29.76 in 10.0 mi NNE 13.8 mph - N/A   Clear
11:53 PM 48.0 °F - 45.0 °F 89% 29.76 in 10.0 mi NNE 11.5 mph - N/A   Clear